This is the latest recevied weather packets stored in our database for station/object N2XP-3. If no packets are shown the sender has not sent any weather packets the latest 10 day(s).
| Time | Temp. | Humidity | Pressure | Rain* | Wind** | Luminosity | Snow |
|---|---|---|---|---|---|---|---|
| 1777479594 | 20° C | 47% | 1011.6 hPa | 0 mm | 0.89 m/s, 274° | - | - |
| 1777479292 | 20° C | 47% | 1011.8 hPa | 0 mm | 0 m/s | - | - |
| 1777478379 | 20.56° C | 45% | 1011.9 hPa | 0 mm | 1.34 m/s, 270° | - | - |
| 1777478080 | 20.56° C | 46% | 1011.9 hPa | 0 mm | 0.89 m/s, 273° | - | - |
| 1777477771 | 20.56° C | 46% | 1011.9 hPa | 0 mm | 0.45 m/s, 267° | - | - |
| 1777477471 | 20° C | 47% | 1012 hPa | 0 mm | 1.34 m/s, 270° | - | - |
| 1777476919 | 18.89° C | 47% | 1012.2 hPa | 0 mm | 0.89 m/s, 214° | - | - |
| 1777476864 | 18.89° C | 47% | 1012.2 hPa | 0 mm | 0.89 m/s, 214° | - | - |
| 1777476661 | 18.33° C | 49% | 1012.1 hPa | 0 mm | 1.34 m/s, 214° | - | - |
| 1777476562 | 18.33° C | 49% | 1012.1 hPa | 0 mm | 1.34 m/s, 214° | - | - |
| 1777476426 | 18.33° C | 49% | 1012.2 hPa | 0 mm | 1.34 m/s, 215° | - | - |
| 1777476263 | 18.33° C | 49% | 1012.2 hPa | 0 mm | 1.34 m/s, 215° | - | - |
| 1777476021 | 18.33° C | 49% | 1012.2 hPa | 0 mm | 1.79 m/s, 170° | - | - |
| 1777475957 | 18.33° C | 49% | 1012.2 hPa | 0 mm | 1.79 m/s, 170° | - | - |
| 1777475772 | 18.33° C | 48% | 1012.2 hPa | 0 mm | 0.89 m/s, 270° | - | - |
| 1777475658 | 18.33° C | 48% | 1012.2 hPa | 0 mm | 0.89 m/s, 270° | - | - |
| 1777475468 | 18.33° C | 49% | 1012.3 hPa | 0 mm | 0.89 m/s, 316° | - | - |
| 1777475358 | 18.33° C | 49% | 1012.3 hPa | 0 mm | 0.89 m/s, 316° | - | - |
| 1777475052 | 17.78° C | 50% | 1012.2 hPa | 0 mm | 0 m/s | - | - |
| 1777474937 | 17.78° C | 49% | 1012.2 hPa | 0 mm | 0.45 m/s, 215° | - | - |
| 1777474750 | 17.78° C | 49% | 1012.2 hPa | 0 mm | 0.45 m/s, 215° | - | - |
| 1777474677 | 17.78° C | 51% | 1012.2 hPa | 0 mm | 0 m/s | - | - |
| 1777474436 | 17.78° C | 51% | 1012.2 hPa | 0 mm | 0 m/s | - | - |
| 1777473532 | 17.78° C | 51% | 1012.2 hPa | 0 mm | 0 m/s | - | - |
| 1777472928 | 17.78° C | 51% | 1012.3 hPa | 0 mm | 0 m/s | - | - |
* Rain latest hour (hover to see other rain measurements)
** Current wind speed in m/s (hover to see current wind gust speed)